User: anonymous   Login
Location: PFO Observatory
(45.2937°N, 66.0991°W)
Time: 15:56:46
(UTC-03:00)
Language:

Cosmos 1151 Rocket - Orbit

View from above orbital plane
View from above orbital plane
View from above satellite
View from above satellite

Ground track
Ground track

The orbit data is extracted from the following two-line orbital elements,

1 11672U 80005B   16242.90648102  .00000153  00000-0  13980-4 0  9999
2 11672  82.5182 354.2859 0016228 199.0984 160.9627 14.87807143980089
Epoch (UTC): 29 August 2016 21:45:19
Eccentricity: 0.0016228
inclination: 82.5182°
perigee height: 593 km
apogee height: 616 km
right ascension of ascending node: 354.2859°
argument of perigee: 199.0984°
revolutions per day: 14.87807143
mean anomaly at epoch: 160.9627°
orbit number at epoch: 98008

The dashed part of the orbit path shows where the satellite is in the earth's shadow,  

DLR